This is the latest recevied weather packets stored in our database for station/object K7FLA. If no packets are shown the sender has not sent any weather packets the latest 10 day(s).
| Time | Temp. | Humidity | Pressure | Rain* | Wind** | Luminosity | Snow |
|---|---|---|---|---|---|---|---|
| 1788625520 | 31.11° C | 19% | 1096.9 hPa | 0 mm | - | 445 W/m² | - |
| 1788625209 | 31.11° C | 20% | 1096.8 hPa | 0 mm | - | 430 W/m² | - |
| 1788624908 | 31.11° C | 20% | 1096.5 hPa | 0 mm | - | 411 W/m² | - |
| 1788624606 | 30.56° C | 21% | 1096.5 hPa | 0 mm | - | 396 W/m² | - |
| 1788624300 | 30° C | 21% | 1096.6 hPa | 0 mm | - | 380 W/m² | - |
| 1788623999 | 30° C | 20% | 1096.4 hPa | 0 mm | - | 362 W/m² | - |
| 1788623694 | 30° C | 19% | 1096.3 hPa | 0 mm | - | 345 W/m² | - |
| 1788623393 | 29.44° C | 21% | 1096.4 hPa | 0 mm | - | 330 W/m² | - |
| 1788623088 | 29.44° C | 23% | 1096.4 hPa | 0 mm | - | 314 W/m² | - |
| 1788622784 | 28.89° C | 24% | 1096.4 hPa | 0 mm | - | 299 W/m² | - |
| 1788622480 | 28.33° C | 26% | 1096.3 hPa | 0 mm | - | 281 W/m² | - |
| 1788622179 | 27.78° C | 26% | 1096 hPa | 0 mm | - | 266 W/m² | - |
| 1788621879 | 27.78° C | 27% | 1096.2 hPa | 0 mm | - | 249 W/m² | - |
| 1788621580 | 27.22° C | 27% | 1096.3 hPa | 0 mm | - | 232 W/m² | - |
| 1788621275 | 26.11° C | 29% | 1096.2 hPa | 0 mm | - | 213 W/m² | - |
| 1788620970 | 25.56° C | 32% | 1096.1 hPa | 0 mm | - | 196 W/m² | - |
| 1788620670 | 24.44° C | 31% | 1096 hPa | 0 mm | - | 180 W/m² | - |
| 1788620367 | 23.89° C | 31% | 1096 hPa | 0 mm | - | 165 W/m² | - |
| 1788620062 | 23.89° C | 31% | 1096.1 hPa | 0 mm | - | 151 W/m² | - |
| 1788619761 | 23.33° C | 31% | 1096 hPa | 0 mm | - | 138 W/m² | - |
| 1788619457 | 22.78° C | 32% | 1096 hPa | 0 mm | - | 123 W/m² | - |
| 1788619155 | 22.22° C | 33% | 1096.1 hPa | 0 mm | - | 111 W/m² | - |
| 1788618850 | 21.67° C | 33% | 1095.7 hPa | 0 mm | - | 99 W/m² | - |
| 1788618549 | 20.56° C | 33% | 1095.7 hPa | 0 mm | - | 87 W/m² | - |
| 1788618248 | 20° C | 33% | 1095.9 hPa | 0 mm | - | 77 W/m² | - |
* Rain latest hour (hover to see other rain measurements)
** Current wind speed in m/s (hover to see current wind gust speed)